Probability
0 0 0 0 0 0 0 0 0 0 0 0 0 0 0 0 0 0 0 0 0 0 0 0 0 0 0 0 0 0 0 0 0 0 0 0 0 0 0 0 0 0 0
0 0 0 0 0 0 0 0 0 0 0 0 0 0 0 0 0 0 0 0 0 0 0 0 0 0 0 0 0 0 0 0 0 0 0 0 0 0 0 0 0 0 0
0 0 0 0 0 0 0 0 0 0 0 0 0 0 0 0 0 0 0 0 0 0 0 0 0 0 0 0 0 0 0 0 0 0 0 0 0 0 0 0 0 0 0
0 0 0 0 0 0 0 0 0 0 0 0 0 0 0 0 0 0 0 0 0 0 0 0 0 0 0 0 0 0 0 0 0 0 0 0 0 0 0 0 0 0 0
0 0 0 0 0 0 0 0 0 0 0 0 0 0 0 0 0 0 0 0 0 0 0 0 0 0 0 0 0 0 0 0 0 0 0 0 0 0 0 0 0 0 0
0 0 0 0 0 0 0 0 0 0 0 0 0 0 0 0 0 0 0 0 0 0 0 0 0 0 0 0 0 0 0 0 0 0 0 0 0 0 0 0 0 0 0
0 0 0 0 0 0 0 0 0 0 0 0 0 0 0 0 0 0 0 0 0 0 0 0 0 0 0 0 0 0 0 0 0 0 0 0 0 0 0 0 0 0 0
0 0 0 0 0 0 0 0 0 0 0 0 0 0 0 0 0 0 0 0 0 0 0 0 0 0 0 0 0 0 0 0 0 0 0 0 0 0 0 0 0 0 0
0 0 0 0 0 0 0 0 0 0 0 0 0 0 0 0 0 0 0 0 0 0 0 0 0 0 0 0 0 0 0 0 0 0 0 0 0 0 0 0 0 0 0
0 0 0 0 0 0 0 0 0 0 0 0 0 0 0 0 0 0 0 0 0 0 0 0 0 0 0 0 0 0 0 0 0 0 0 0 0 0 0 0 0 0 0
0 0 0 0 0 0 0 0 0 0 0 0 0 0 0 0 0 0 0 0 0 0 0 0 0 0 0 0 0 0 0 0 0 0 0 0 0 0 0 0 0 0 0
0 0 0 0 0 0 0 0 0 0 0 0 0 0 0 0 0 0 0 0 0 0 0 0 0 0 0 0 0 0 0 0 0 0 0 0 0 0 0 0 0 0 0
0 0 0 0 0 0 0 0 0 0 0 0 0 0 0 0 0 0 0 0 0 0 0 0 0 0 0 0 0 0 0 0 0 0 0 0 0 0 0 0 0 0 0
0 0 0 0 0 0 0 0 0 0 0 0 0 0 0 0 0 0 0 0 0 0 0 0 0 0 0 0 0 0 0 0 0 0 0 0 0 0 0 0 0 0 0
0 0 0 0 0 0 0 0 0 0 0 0 0 0 0 0 0 0 0 0 0 0 0 0 0 0 0 0 0 0 0 0 0 0 0 0 0 0 0 0 0 0 0
0 0 0 0 0 0 0 0 0 0 0 0 0 0 0 0 0 0 0 0 0 0 0 0 0 0 0 0 0 0 0 0 0 0 0 0 0 0 0 0 0 0 0
0 0 0 0 0 0 0 0 0 0 0 0 0 0 0 0 0 0 0 0 0 0 0 0 0 0 0 0 0 0 0 0 0 0 0 0 0 0 0 0 0 0 0
0 0 0 0 0 0 0 0 0 0 0 0 0 0 0 0 0 0 0 0 0 0 0 0 0 0 0 0 0 0 0 0 0 0 0 0 0 0 0 0 0 0 0
0 0 0 0 0 0 0 0 0 0 0 0 0 0 0 0 0 0 0 0 0 0 0 0 0 0 0 0 0 0 0 0 0 0 0 0 0 0 0 0 0 0 0
0 0 0 0 0 0 0 0 0 0 0 0 0 0 0 0 0 0 0 0 0 0 0 0 0 0 0 0 0 0 0 0 0 0 0 0 0 0 0 0 0 0 0
0 0 0 0 0 0 0 0 0 0 0 0 0 0 0 0 0 0 0 0 0 0 0 0 0 0 0 0 0 0 0 0 0 0 0 0 0 0 0 0 0 0 0
0 0 0 0 0 0 0 0 0 0 0 0 0 0 0 0 0 0 0 0 0 0 0 0 0 0 0 0 0 0 0 0 0 0 0 0 0 0 0 0 0 0 0
0 0 0 0 0 0 0 0 0 0 0 0 0 0 0 0 0 0 0 0 0 0 0 0 0 0 0 0 0 0 0 0 0 0 0 0 0 0 0 0 0 0 0
0 0 0 0 0 0 0 0 0 0 0 0 0 0 0 0 0 0 0 0 0 0 0 0 0 0 0 0 0 0 0 0 0 0 0 0 0 0 0 0 0 0 0
0 0 0 0 0 0 0 0 0 0 0 0 0 0 0 0 0 0 0 0 0 0 0 0 0 0 0 0 0 0 0 0 0 0 0 0 0 0 0 0 0 0 0
0 0 0 0 0 0 0 0 0 0 0 0 0 0 0 0 0 0 0 0 0 0 0 0 0 0 0 0 0 0 0 0 0 0 0 0 0 0 0 0 0 0 0
Wind_Speed
4 4 5 5 5 6 5 6 5 6 7 7 6 6 7 7 6 5 5 5 4 4 4 4 3 3 2 2 1 0 1 1 3 1 2 1 2 3 4 4 3 4 4
4 4 5 5 6 6 6 6 6 6 7 7 7 7 8 8 8 7 7 7 6 6 6 5 5 4 4 3 2 2 1 1 1 2 2 2 1 2 3 4 3 3 3
4 4 5 5 6 6 6 6 6 6 6 7 7 8 8 8 8 8 8 8 8 8 7 6 6 5 5 4 4 3 2 2 2 2 2 2 2 2 2 2 2 1 3
4 5 5 5 5 5 5 6 6 6 7 7 7 7 7 8 8 8 8 8 8 8 8 7 6 6 4 4 4 4 3 3 3 3 2 2 2 2 2 1 1 1 1
4 4 4 4 5 5 6 6 6 7 8 7 7 8 7 7 7 8 7 8 8 8 8 7 7 7 7 5 4 3 3 3 3 3 2 2 1 1 1 1 1 0 1
4 4 4 4 5 5 5 6 6 7 7 7 8 8 8 8 12 13 9 7 7 8 7 7 8 9 10 11 10 8 6 4 3 2 1 1 1 1 1 1 1 1 2
4 4 4 4 5 5 5 6 6 6 6 7 7 7 8 10 14 14 13 8 7 6 6 6 5 6 8 6 8 10 9 9 6 2 1 1 0 0 1 1 1 2 3
4 4 4 4 4 4 5 5 5 5 5 5 6 6 6 8 12 12 12 7 6 6 5 5 4 4 4 5 5 5 5 5 4 2 1 1 2 2 3 3 3 2 2
4 4 4 4 4 4 4 4 4 4 4 4 4 5 5 5 9 10 9 4 4 5 4 4 3 3 6 7 5 4 4 4 5 6 4 3 4 4 3 1 1 0 2
4 4 4 4 4 4 4 3 3 3 3 3 3 3 3 3 6 8 7 2 3 2 3 4 5 4 5 6 2 2 2 3 3 4 5 6 5 6 7 1 3 3 2
5 4 4 4 4 4 3 2 3 3 3 2 2 1 2 2 4 5 5 2 1 1 1 2 3 6 6 6 4 0 3 2 1 2 3 3 3 3 3 2 2 4 4
5 5 4 4 4 3 3 3 2 2 2 1 1 0 1 2 2 2 4 3 2 1 1 2 3 6 6 6 4 5 5 3 1 2 2 2 2 3 3 3 3 3 5
6 5 5 4 3 4 4 3 2 2 2 2 2 1 2 1 3 4 4 4 3 0 1 4 6 7 6 4 6 6 4 1 1 2 2 3 3 3 3 3 4 4 5
7 6 5 5 4 3 3 3 3 3 3 2 3 2 2 2 2 2 2 2 3 2 2 4 6 6 4 4 4 3 2 2 2 2 3 3 3 2 2 2 3 3 4
7 6 5 5 5 4 3 3 4 3 5 4 3 3 3 3 4 5 2 2 2 3 2 1 1 2 2 2 2 2 2 2 2 2 2 3 4 3 4 3 3 4 4
7 6 5 5 4 4 3 2 5 5 5 6 7 5 4 5 5 5 5 6 6 7 2 0 1 2 2 3 3 3 2 3 2 2 3 3 4 4 5 4 5 5 7
8 7 5 5 5 5 4 4 3 3 4 5 6 6 5 5 5 5 6 6 6 6 1 2 2 3 3 3 3 3 3 3 3 3 4 4 4 5 5 6 6 6 7
9 9 8 6 5 5 5 5 4 3 3 3 4 7 7 6 6 6 7 5 2 2 2 3 3 3 3 4 4 4 4 4 3 4 4 4 4 5 6 6 6 7 8
8 6 6 5 5 5 5 5 4 4 4 3 2 3 6 6 6 7 5 2 3 3 3 3 4 4 4 4 4 4 4 5 5 4 5 5 5 5 6 7 7 12 11
7 11 9 6 5 5 5 5 5 4 4 4 4 3 2 2 2 3 3 3 3 4 4 4 4 4 4 4 4 4 5 5 6 5 6 6 5 6 7 8 8 8 9
6 8 12 7 6 6 5 5 5 5 4 4 4 5 7 4 4 4 4 4 4 4 4 4 4 4 4 4 4 5 6 6 6 6 6 6 6 6 7 8 9 9 9
6 6 6 6 6 5 5 5 5 5 5 5 4 4 8 4 3 4 4 4 4 4 4 4 4 5 5 5 5 5 6 7 7 6 7 7 7 8 8 8 9 9 10
6 6 6 5 5 7 6 5 5 5 5 5 4 4 4 4 4 5 5 5 4 4 4 4 5 5 5 5 5 6 7 8 7 7 8 8 8 8 8 10 11 12 12
6 7 6 6 5 5 5 5 5 5 5 5 5 5 5 5 5 5 5 4 4 4 4 5 6 8 10 7 6 6 8 9 8 8 11 11 11 10 10 11 12 14 14
6 6 6 6 6 6 6 5 5 6 5 5 5 5 4 4 5 5 4 4 5 6 7 6 6 7 9 11 10 9 14 19 18 13 11 11 13 13 13 14 13 14 15
6 6 6 5 5 6 6 6 6 6 6 5 5 4 4 4 5 5 5 5 5 5 6 6 7 9 10 10 12 15 19 20 21 22 15 11 13 13 13 13 16 15 16
Wind_Direction
36 37 39 30 26 30 31 23 17 17 17 18 17 21 22 20 19 29 30 29 41 38 34 44 44 41 49 36 33 8 274 228 235 111 92 91 131 147 148 136 149 176 206
47 52 46 38 35 35 30 25 27 29 25 25 27 32 31 30 30 36 39 38 44 44 39 48 47 49 50 39 41 35 13 29 165 165 127 125 131 154 142 148 161 182 193
64 63 54 43 40 37 33 31 33 36 34 34 37 38 35 34 35 38 45 48 50 48 45 49 44 49 49 41 40 37 28 29 48 112 111 97 95 120 128 151 170 173 211
74 71 63 51 47 45 42 41 40 42 43 40 41 42 42 43 42 42 50 54 56 53 50 51 49 53 59 56 51 42 42 47 50 74 89 88 92 101 118 148 174 181 238
82 76 70 64 59 56 52 50 49 49 50 46 47 44 42 49 50 51 52 58 59 57 50 46 47 56 64 67 67 53 50 56 59 64 69 81 91 101 136 129 175 145 278
91 83 77 73 67 63 61 58 58 54 51 50 48 48 49 53 59 63 66 58 56 55 50 42 40 41 48 57 66 64 62 63 57 55 51 72 78 83 95 122 132 102 291
102 92 84 84 78 70 70 67 62 60 58 54 50 49 52 56 61 65 68 66 60 55 50 43 42 41 44 37 44 44 39 42 52 81 83 69 80 145 140 151 188 200 228
113 104 102 100 93 85 80 75 67 63 61 57 52 47 48 56 64 68 71 60 57 50 47 46 44 22 34 52 46 36 26 18 28 61 128 188 203 204 193 195 207 230 259
128 121 117 114 109 102 94 89 82 78 71 63 56 49 44 42 64 71 71 55 51 38 26 31 41 11 26 48 53 34 18 358 14 25 18 333 304 295 261 169 177 259 291
144 135 128 125 124 121 114 105 97 95 89 82 65 47 41 24 55 71 77 67 52 27 12 5 8 14 15 31 72 40 353 321 337 351 354 350 349 334 328 266 184 190 225
148 143 139 139 138 135 129 123 124 116 104 93 79 28 11 12 26 52 72 99 80 39 16 347 326 344 351 349 3 317 291 315 360 336 324 322 328 328 324 313 207 180 193
156 157 157 159 159 147 144 143 143 141 133 136 130 319 323 330 339 6 31 42 77 115 319 286 293 321 334 340 343 313 326 16 23 325 316 314 315 308 302 302 285 246 223
164 169 170 168 163 157 163 166 163 167 173 195 203 229 269 300 325 350 1 357 5 81 269 300 315 326 336 338 322 328 4 20 309 299 295 285 267 265 281 297 294 277 264
176 179 177 172 169 166 167 169 169 180 188 198 207 220 244 271 276 283 300 316 325 320 303 314 331 338 345 331 330 346 342 280 271 263 273 272 274 275 279 283 292 306 297
183 184 182 180 174 174 178 189 187 203 195 193 203 203 207 241 254 260 254 240 246 254 265 234 329 331 333 325 315 305 300 309 312 291 284 293 297 299 297 295 287 291 281
186 188 185 180 179 177 176 198 222 212 214 206 200 200 223 242 266 285 296 298 304 308 319 268 288 293 292 295 299 299 293 288 280 274 277 281 288 291 293 289 280 278 280
190 187 183 183 183 183 184 188 205 238 242 234 230 233 239 257 272 286 291 294 304 324 324 272 273 277 277 279 276 271 270 272 270 269 267 269 273 277 281 282 281 278 276
190 190 188 189 187 187 191 194 194 201 224 255 256 253 254 258 270 283 290 295 296 300 257 262 264 266 266 267 268 267 271 276 270 266 264 263 262 267 272 272 270 268 274
189 188 187 185 185 188 188 189 195 204 213 227 243 266 259 262 272 282 295 256 252 263 261 258 256 258 259 261 262 263 264 267 268 266 263 261 258 260 265 266 267 273 275
193 193 183 182 183 185 186 190 197 204 212 220 229 234 238 237 246 263 259 248 250 256 257 257 257 255 255 257 259 261 265 265 266 262 262 261 258 256 262 266 267 269 268
186 190 188 185 189 189 190 195 198 202 211 221 228 233 229 223 233 242 247 249 247 252 254 256 257 258 255 253 253 257 261 264 262 261 263 262 259 261 261 263 266 267 269
182 184 186 190 189 191 194 194 195 204 214 224 231 242 254 244 233 242 247 252 249 247 246 249 254 252 247 246 249 255 259 263 262 258 260 261 259 262 264 265 266 267 268
183 185 187 189 185 200 202 196 200 208 216 220 225 230 236 238 240 244 249 252 254 257 256 252 256 261 256 246 240 242 254 260 260 257 262 265 264 263 263 264 265 266 267
189 191 193 190 188 195 198 202 207 213 217 222 226 230 233 236 244 251 252 255 259 261 260 256 256 261 266 267 259 250 251 258 259 258 254 257 261 262 262 262 263 263 265
191 192 195 193 193 198 203 207 212 216 219 224 227 231 233 236 244 251 253 256 261 264 268 265 262 263 266 267 267 266 271 275 274 269 258 255 257 257 259 262 263 265 265
194 196 197 194 195 198 202 210 217 218 221 225 227 229 233 239 246 251 255 258 262 266 270 270 266 266 269 272 272 274 279 280 281 281 278 272 268 266 265 266 266 266 268